Location: Haulchin
(50.3172°N, 3.4360°E)
Time: 14:06:08
(UTC+00:00)

Cosmos 1980 Rocket - Pass Details

Date: 23 May 2024
Orbit: 827 x 851 km, 71.0° (Epoch: 16 June)

Event Time Altitude Azimuth Distance (km) Brightness Sun altitude
Rises 01:04:00 0° 325° (NW) 3,428 5.9 -16.8°
Reaches altitude 10° 01:06:40 10° 316° (NW) 2,488 5.0 -16.7°
Maximum altitude 01:11:41 33° 254° (WSW) 1,400 3.0 -16.4°
Enters shadow 01:13:50 25° 216° (SW) 1,651 3.1 -16.3°
